Regional Weather Roundup
Issued by NWS Albany, NY

Home | Current Version | Previous Version | Text Only | Print | Product List | Glossary On
Versions: 1 2 3 4 5 6 7 8 9 10 11 12 13 14 15 16 17 18 19 20 21 22 23 24 25 26 27
000
ASUS41 KALY 300410
RWRALY

NEW YORK STATE HOURLY WEATHER ROUNDUP
NATIONAL WEATHER SERVICE ALBANY NY
1200 AM EDT FRI SEP 30 2016

NOTE: "FAIR" INDICATES FEW OR NO CLOUDS BELOW 12,000 FEET WITH NO
SIGNIFICANT WEATHER AND/OR NO OBSTRUCTIONS TO VISIBILITY.

NYZ032-033-038>043-046>054-057>066-NYZ062>081-082-084-300500-
EAST


CITY           SKY/WX    TMP DP  RH WIND       PRES   REMARKS
ALBANY         MOCLDY    53  44  71 NE6       30.46S
GLENS FALLS    CLOUDY    58  43  57 NE7       30.46F
POUGHKEEPSIE   MOCLDY    56  44  64 NE8       30.40F
NEWBURGH       MOCLDY    57  48  72 E15       30.42F
MONTGOMERY     CLOUDY    58  47  66 NE8       30.40S
WHITE PLAINS   MOCLDY    55  47  74 NE13G30   30.37F
ISLIP          CLOUDY    59  52  77 NE12G25   30.36F
NEW YORK CITY  LGT RAIN  61  54  77 NE26G36   30.36S
CENTRAL PARK   CLOUDY    60  52  74 E18G26    30.38F
$$

NYZ005>009-017-018-044>046-055-056-300500-
CENTRAL


CITY           SKY/WX    TMP DP  RH WIND       PRES   REMARKS
FULTON         MOCLDY    59  48  67 VRB5      30.38F
SYRACUSE       MOCLDY    57  49  74 E8        30.37S
ROME           CLOUDY    57  47  69 E7        30.42S
ELMIRA         CLOUDY    57  53  86 E6        30.33S
BINGHAMTON     CLOUDY    53  45  74 E9        30.34F
MONTICELLO     CLOUDY    52  45  76 E15G21    30.39F
$$

NYZ026>034-041>043-087-300500-
NORTH


CITY           SKY/WX    TMP DP  RH WIND       PRES   REMARKS
WATERTOWN      PTCLDY    53  49  86 E5        30.41F
FORT DRUM      NOT AVBL
OGDENSBURG     FAIR      57  48  71 NE8       30.46S
MASSENA        CLOUDY    58  45  62 E13       30.48F
SARANAC LAKE   CLOUDY    53  45  74 NE3       30.46R
PLATTSBURGH    CLOUDY    57  44  62 N10       30.48S
$$

NYZ001>004-010>016-019>021-085-300500-
WEST


CITY           SKY/WX    TMP DP  RH WIND       PRES   REMARKS
NIAGARA FALLS  CLOUDY    59  49  69 E10       30.32S
BUFFALO        CLOUDY    57  50  77 E10       30.31F
DUNKIRK        CLOUDY    60  55  83 NE8       30.27S
JAMESTOWN      CLOUDY    57  52  82 E10       30.26S
WELLSVILLE     CLOUDY    53  50  89 SE9       30.34R
ROCHESTER      CLOUDY    58  50  75 NE6       30.36S
PENN YAN       CLOUDY    57  52  83 VRB3      30.36S
$$

             KEY
       WCI = WIND CHILL INDEX
       VSB = VISIBILITY
       HX  = HEAT INDEX
$$




USA.gov is the U.S. government's official web portal to all federal, state and local government web resources and services.